Location: Peterborough
(44.3091°N, 78.3197°W)
Time: 03:03:50
(UTC-04:00)

Tiros 1 - Pass Details

Date: 06 April 2023
Orbit: 627 x 661 km, 48.4° (Epoch: 09 June)

Event Time Altitude Azimuth Distance (km) Brightness Sun altitude
Rises 07:44:13 0° 292° (WNW) 2,991 10.0 9.6°
Reaches altitude 10° 07:46:38 10° 287° (WNW) 2,077 9.2 10.0°
Maximum altitude 07:51:14 48° 214° (SSW) 864 7.7 10.8°
Drops below altitude 10° 07:55:49 10° 140° (SE) 2,065 10.5 11.7°
Sets 07:58:13 0° 135° (SE) 2,972 11.4 12.1°
